Overview Statistics Trail Chart Weather Telemetry Raw packets
 

This is the latest recevied weather packets stored in our database for station/object WC4PEM-11. If no packets are shown the sender has not sent any weather packets the latest 10 day(s).

<< 1 2 3 4 5 6 >>
Time Temp. Humidity Pressure Rain* Wind** Luminosity Snow
1788561476 33.33° C 71% 1014 hPa 0 mm - - -
1788561176 33.33° C 70% 1014 hPa 0 mm - - -
1788560876 33.33° C 70% 1014 hPa 0 mm - - -
1788560576 33.33° C 71% 1014 hPa 0 mm - - -
1788560276 33.33° C 71% 1013.7 hPa 0 mm - - -
1788559976 32.78° C 70% 1013.5 hPa 0 mm - - -
1788559676 32.78° C 70% 1013.5 hPa 0 mm - - -
1788559376 32.78° C 70% 1013.4 hPa 0 mm - - -
1788559301 32.78° C 71% 1013.4 hPa 0 mm - - -
1788559076 32.78° C 71% 1013.4 hPa 0 mm - - -
1788558776 32.22° C 71% 1013.5 hPa 0 mm - - -
1788558476 32.22° C 73% 1013.7 hPa 0 mm - - -
1788558176 31.67° C 76% 1013.8 hPa 0 mm - - -
1788557876 31.67° C 76% 1014 hPa 0 mm - - -
1788557576 31.11° C 77% 1014 hPa 0 mm - - -
1788557276 31.11° C 77% 1014.3 hPa 0 mm - - -
1788557186 30.56° C 78% 1014.2 hPa 0 mm - - -
1788556976 30.56° C 78% 1014.2 hPa 0 mm - - -
1788556676 30.56° C 79% 1014.1 hPa 0 mm - - -
1788556376 30.56° C 80% 1014.2 hPa 0 mm - - -
1788556189 30.56° C 79% 1014.1 hPa 0 mm - - -
1788556076 30.56° C 79% 1014.1 hPa 0 mm - - -
1788555776 31.11° C 78% 1013.9 hPa 0 mm - - -
1788555476 31.11° C 77% 1014 hPa 0 mm - - -
1788555176 31.67° C 75% 1014 hPa 0 mm - - -

* Rain latest hour (hover to see other rain measurements)
** Current wind speed in m/s (hover to see current wind gust speed)